STARLINK S (59938 NORAD) Tracking and Keplerian Element Data

This shows tracking and keplerian element data for the satellite.

Feedback or suggestion? Click here.




ElementValue
Catalog59938
NameSTARLINK S
Epoch Orbit224
Epoch Day159.91667824
Epoch Year2024
RAAN23.9726
Inclination43.0027
Eccentricity0.0002127
Argument of Perigee278.3507
Mean Anonmoly175.7012
Mean Motion15.9371125
Decay Rate-0.01051151
L11 59938U 24106S 24159.91667824 -.01051151 33662-3 -27908-2 0 9998
L22 59938 43.0027 23.9726 0002127 278.3507 175.7012 15.93711250 2240



Live tracking and technical data element details for STARLINK S (NORAD 59938). STARLINK S can be tracked NOW for your location showing map with azimuth and elevation plus other details from your city location.







IsCatalogInMostPopularTable: catalog: 59938, numindb: 12
Update: records affected: 1



GetName: 59938 STARLINK S

Hit Count: updated at: Thu, 25 Jul 2024 00:24:37 GMT